Location: Aufkirchen
(47.9603°N, 11.3653°E)
Time: 16:24:55
(UTC+01:00)

Transit 4A - Pass Details

Date: 30 November 2020
Orbit: 864 x 980 km, 66.8° (Epoch: 26 January)

Event Time Altitude Azimuth Distance (km) Brightness Sun altitude
Rises 12:38:29 0° 310° (NW) 3,688 10.7 19.8°
Reaches altitude 10° 12:42:35 10° 335° (NNW) 2,740 10.0 19.7°
Maximum altitude 12:45:49 14° 5° (N) 2,447 9.6 19.6°
Drops below altitude 10° 12:49:02 10° 36° (NE) 2,727 9.9 19.5°
Sets 12:53:06 0° 61° (ENE) 3,657 10.6 19.4°
